HELLAS-SAT 4 & SGS-1

Last updated on Sat Jun 14 2025 00:02:47 GMT+0000 (Coordinated Universal Time)

1 44034U 19007A 25164.17822753 .00000168 00000+0 00000+0 0 9998 2 44034 0.0739 132.0310 0005330 3.3618 229.5256 1.00265119 23650
UTC large
Height (km)
Speed (km/s)
/
Latitude / Longitude
Inclination (degrees)
Orbital Period (minutes)
Azimuth
Elevation
Range (km)
Doppler Factor

Next 0 passes for location: London (51.5072 / 0.1276)

Sorry there are no passes over London.